Météo par heure à Jubail

Ce jour, 20 Juin, Dimanche

Heure Température Précipitation Vent Pression Humidité
00:00 +36°C° 0 mm 6 m/s 750 mmHg 19%
01:00 +36°C° 0 mm 7 m/s 750 mmHg 22%
02:00 +35°C° 0 mm 7 m/s 750 mmHg 24%
03:00 +35°C° 0 mm 8 m/s 750 mmHg 27%
04:00 +35°C° 0 mm 7 m/s 750 mmHg 29%
05:00 +35°C° 0 mm 7 m/s 751 mmHg 31%
06:00 +34°C° 0 mm 7 m/s 751 mmHg 33%
07:00 +38°C° 0 mm 7 m/s 751 mmHg 28%
08:00 +40°C° 0 mm 7 m/s 751 mmHg 23%
09:00 +43°C° 0 mm 8 m/s 751 mmHg 17%
10:00 +44°C° 0 mm 7 m/s 751 mmHg 15%
11:00 +45°C° 0 mm 7 m/s 751 mmHg 14%
12:00 +45°C° 0 mm 7 m/s 751 mmHg 12%
13:00 +45°C° 0 mm 7 m/s 751 mmHg 13%
14:00 +45°C° 0 mm 7 m/s 751 mmHg 13%
15:00 +44°C° 0 mm 7 m/s 751 mmHg 14%
16:00 +42°C° 0 mm 6 m/s 750 mmHg 16%
17:00 +41°C° 0 mm 6 m/s 750 mmHg 18%
18:00 +40°C° 0 mm 5 m/s 750 mmHg 20%
19:00 +39°C° 0 mm 5 m/s 750 mmHg 19%
20:00 +38°C° 0 mm 4 m/s 751 mmHg 17%
21:00 +37°C° 0 mm 4 m/s 751 mmHg 16%
22:00 +36°C° 0 mm 3 m/s 751 mmHg 18%
23:00 +36°C° 0 mm 3 m/s 751 mmHg 21%

Demain, 21 Juin, Lundi

Heure Température Précipitation Vent Pression Humidité
00:00 +35°C° 0 mm 3 m/s 751 mmHg 23%
01:00 +35°C° 0 mm 3 m/s 751 mmHg 20%
02:00 +35°C° 0 mm 4 m/s 750 mmHg 17%
03:00 +35°C° 0 mm 4 m/s 750 mmHg 14%
04:00 +34°C° 0 mm 5 m/s 751 mmHg 19%
05:00 +34°C° 0 mm 5 m/s 751 mmHg 24%
06:00 +34°C° 0 mm 6 m/s 751 mmHg 29%
07:00 +36°C° 0 mm 6 m/s 751 mmHg 25%
08:00 +40°C° 0 mm 7 m/s 752 mmHg 22%
09:00 +43°C° 0 mm 7 m/s 752 mmHg 18%
10:00 +44°C° 0 mm 7 m/s 752 mmHg 17%
11:00 +45°C° 0 mm 6 m/s 752 mmHg 15%
12:00 +45°C° 0 mm 6 m/s 752 mmHg 13%
13:00 +45°C° 0 mm 6 m/s 751 mmHg 12%
14:00 +45°C° 0 mm 6 m/s 751 mmHg 12%
15:00 +45°C° 0 mm 5 m/s 750 mmHg 12%
16:00 +43°C° 0 mm 5 m/s 750 mmHg 14%
17:00 +41°C° 0 mm 4 m/s 750 mmHg 15%
18:00 +39°C° 0 mm 3 m/s 750 mmHg 17%
19:00 +38°C° 0 mm 2 m/s 750 mmHg 16%
20:00 +36°C° 0 mm 1 m/s 750 mmHg 15%
21:00 +35°C° 0 mm 1 m/s 750 mmHg 13%
22:00 +37°C° 0 mm 2 m/s 750 mmHg 12%
23:00 +37°C° 0 mm 3 m/s 750 mmHg 11%

Après-demain, 22 Juin, Mardi

Heure Température Précipitation Vent Pression Humidité
00:00 +37°C° 0 mm 4 m/s 750 mmHg 10%
01:00 +37°C° 0 mm 4 m/s 750 mmHg 10%
02:00 +37°C° 0 mm 4 m/s 750 mmHg 10%
03:00 +36°C° 0 mm 4 m/s 750 mmHg 11%
04:00 +36°C° 0 mm 5 m/s 750 mmHg 15%
05:00 +35°C° 0 mm 5 m/s 750 mmHg 20%
06:00 +35°C° 0 mm 5 m/s 751 mmHg 24%
07:00 +39°C° 0 mm 5 m/s 751 mmHg 22%
08:00 +41°C° 0 mm 6 m/s 751 mmHg 19%
09:00 +45°C° 0 mm 7 m/s 751 mmHg 16%
10:00 +46°C° 0 mm 7 m/s 751 mmHg 15%
11:00 +46°C° 0 mm 6 m/s 751 mmHg 14%
12:00 +47°C° 0 mm 6 m/s 751 mmHg 12%
13:00 +47°C° 0 mm 6 m/s 751 mmHg 12%
14:00 +47°C° 0 mm 5 m/s 750 mmHg 11%
15:00 +47°C° 0 mm 5 m/s 750 mmHg 10%
16:00 +44°C° 0 mm 4 m/s 750 mmHg 13%
17:00 +43°C° 0 mm 3 m/s 750 mmHg 15%
18:00 +40°C° 0 mm 3 m/s 750 mmHg 18%
19:00 +39°C° 0 mm 3 m/s 750 mmHg 17%
20:00 +38°C° 0 mm 2 m/s 750 mmHg 17%
21:00 +37°C° 0 mm 2 m/s 750 mmHg 16%
22:00 +37°C° 0 mm 2 m/s 750 mmHg 15%
23:00 +37°C° 0 mm 2 m/s 750 mmHg 14%

23 Juin, Mercredi

Heure Température Précipitation Vent Pression Humidité
00:00 +37°C° 0 mm 2 m/s 750 mmHg 12%
01:00 +37°C° 0 mm 3 m/s 750 mmHg 12%
02:00 +37°C° 0 mm 4 m/s 750 mmHg 12%
03:00 +37°C° 0 mm 4 m/s 750 mmHg 12%
04:00 +36°C° 0 mm 5 m/s 750 mmHg 15%
05:00 +36°C° 0 mm 5 m/s 751 mmHg 18%
06:00 +36°C° 0 mm 5 m/s 751 mmHg 20%
07:00 +39°C° 0 mm 6 m/s 751 mmHg 23%
08:00 +40°C° 0 mm 6 m/s 752 mmHg 26%
09:00 +41°C° 0 mm 6 m/s 752 mmHg 29%
10:00 +44°C° 0 mm 6 m/s 752 mmHg 25%
11:00 +45°C° 0 mm 5 m/s 752 mmHg 21%
12:00 +46°C° 0 mm 5 m/s 752 mmHg 17%
13:00 +44°C° 0 mm 4 m/s 752 mmHg 17%
14:00 +44°C° 0 mm 4 m/s 751 mmHg 17%
15:00 +44°C° 0 mm 3 m/s 751 mmHg 17%
16:00 +43°C° 0 mm 3 m/s 751 mmHg 20%
17:00 +40°C° 0 mm 3 m/s 751 mmHg 23%
18:00 +39°C° 0 mm 2 m/s 751 mmHg 26%
19:00 +38°C° 0 mm 2 m/s 751 mmHg 24%
20:00 +37°C° 0 mm 2 m/s 751 mmHg 23%
21:00 +36°C° 0 mm 2 m/s 751 mmHg 22%
22:00 +36°C° 0 mm 2 m/s 751 mmHg 21%
23:00 +34°C° 0 mm 1 m/s 751 mmHg 21%

24 Juin, Jeudi

Heure Température Précipitation Vent Pression Humidité
00:00 +34°C° 0 mm 1 m/s 752 mmHg 20%
01:00 +35°C° 0 mm 2 m/s 751 mmHg 19%
02:00 +35°C° 0 mm 3 m/s 751 mmHg 18%
03:00 +36°C° 0 mm 4 m/s 751 mmHg 17%
04:00 +35°C° 0 mm 5 m/s 751 mmHg 25%
05:00 +35°C° 0 mm 6 m/s 752 mmHg 32%
06:00 +35°C° 0 mm 7 m/s 752 mmHg 39%
07:00 +38°C° 0 mm 7 m/s 752 mmHg 33%
08:00 +40°C° 0 mm 6 m/s 752 mmHg 27%
09:00 +42°C° 0 mm 6 m/s 752 mmHg 21%
10:00 +44°C° 0 mm 6 m/s 752 mmHg 19%
11:00 +44°C° 0 mm 6 m/s 752 mmHg 18%
12:00 +45°C° 0 mm 6 m/s 752 mmHg 16%
13:00 +45°C° 0 mm 5 m/s 752 mmHg 15%
14:00 +45°C° 0 mm 5 m/s 751 mmHg 15%
15:00 +45°C° 0 mm 5 m/s 751 mmHg 14%
16:00 +43°C° 0 mm 4 m/s 751 mmHg 17%
17:00 +40°C° 0 mm 3 m/s 751 mmHg 20%
18:00 +39°C° 0 mm 2 m/s 750 mmHg 23%
19:00 +37°C° 0 mm 2 m/s 750 mmHg 24%
20:00 +36°C° 0 mm 2 m/s 751 mmHg 26%
21:00 +33°C° 0 mm 1 m/s 751 mmHg 27%
22:00 +33°C° 0 mm 1 m/s 751 mmHg 25%
23:00 +33°C° 0 mm 1 m/s 751 mmHg 24%

25 Juin, Vendredi

Heure Température Précipitation Vent Pression Humidité
00:00 +33°C° 0 mm 1 m/s 751 mmHg 22%
01:00 +34°C° 0 mm 2 m/s 750 mmHg 21%
02:00 +34°C° 0 mm 2 m/s 750 mmHg 21%
03:00 +32°C° 0 mm 2 m/s 750 mmHg 20%
04:00 +34°C° 0 mm 2 m/s 750 mmHg 18%
05:00 +34°C° 0 mm 3 m/s 750 mmHg 16%
06:00 +35°C° 0 mm 3 m/s 750 mmHg 14%
07:00 +37°C° 0 mm 3 m/s 750 mmHg 12%
08:00 +40°C° 0 mm 2 m/s 751 mmHg 10%
09:00 +42°C° 0 mm 1 m/s 751 mmHg 8%
10:00 +45°C° 0 mm 2 m/s 750 mmHg 8%
11:00 +46°C° 0 mm 2 m/s 750 mmHg 7%
12:00 +48°C° 0 mm 2 m/s 750 mmHg 6%
13:00 +48°C° 0 mm 3 m/s 749 mmHg 7%
14:00 +48°C° 0 mm 3 m/s 749 mmHg 7%
15:00 +49°C° 0 mm 4 m/s 749 mmHg 8%
16:00 +46°C° 0 mm 3 m/s 749 mmHg 9%
17:00 +45°C° 0 mm 3 m/s 748 mmHg 11%
18:00 +42°C° 0 mm 2 m/s 748 mmHg 12%
19:00 +41°C° 0 mm 2 m/s 748 mmHg 13%
20:00 +40°C° 0 mm 2 m/s 748 mmHg 13%
21:00 +39°C° 0 mm 2 m/s 749 mmHg 13%
22:00 +37°C° 0 mm 2 m/s 749 mmHg 18%
23:00 +36°C° 0 mm 3 m/s 749 mmHg 23%
Voir plus

Nous avons besoin de votre consentement

Meteoprog et ses fournisseurs de services peuvent stocker et accéder à des données personnelles telles que des cookies, des identifiants d'appareils ou d'autres technologies similaires sur votre appareil et traiter ces données pour personnaliser le contenu et les publicités, ainsi que pour fournir des fonctionnalités de médias sociaux et analyser le trafic.

  • Stocker et/ou accéder à des informations sur votre appareil

    Des cookies, des identifiants d'appareils ou d'autres informations peuvent être stockés ou accessibles sur votre appareil aux fins indiquées ci-dessus.

  • Annonces et contenus personnalisés, mesure des annonces et des contenus, connaissance de l'audience et développement de produits

    Les annonces et le contenu peuvent être personnalisés en fonction d'un profil. D'autres données peuvent être ajoutées pour mieux personnaliser les annonces et le contenu. Les performances des publicités et du contenu peuvent être mesurées. Il est possible d'obtenir des informations sur le public qui a vu les publicités et le contenu. Ces données peuvent être utilisées pour développer ou améliorer l'expérience de l'utilisateur, les systèmes et les logiciels.

En cliquant sur "J'accepte", vous autorisez l'utilisation de cookies, des identifiants d'appareils, des balises web ou d'autres technologies similaires. Vos paramètres peuvent être modifiés dans le navigateur de votre appareil.

Dans certains cas, des intérêts légitimes peuvent être invoqués plutôt qu'un consentement. Vous pouvez en savoir plus à ce sujet dans notre Politique de confidentialité et de cookies.